<?xml version="1.0"?>
<gpx xmlns="http://www.topografix.com/GPX/1/1" xmlns:xsi="http://www.w3.org/2001/XMLSchema-instance" version="1.1" creator="GPX RubyGem 1.0.0 -- http://dougfales.github.io/gpx/" xsi:schemaLocation="http://www.topografix.com/GPX/1/1 http://www.topografix.com/GPX/1/1/gpx.xsd">
  <metadata>
    <name/>
    <time>2026-05-07T08:36:23+00:00</time>
    <bound minlat="90.0" minlon="180.0" maxlat="-90.0" maxlon="-180.0"/>
  </metadata>
  <trk>
    <name/>
    <trkseg>
      <trkpt lat="46.868407" lon="11.251922">
        <time>1970-01-01T00:00:00+00:00</time>
        <ele>1482.0</ele>
      </trkpt>
      <trkpt lat="46.868432" lon="11.251856">
        <time>1970-01-01T00:00:00+00:00</time>
        <ele>1482.0</ele>
      </trkpt>
      <trkpt lat="46.86848" lon="11.251651">
        <time>1970-01-01T00:00:00+00:00</time>
        <ele>1484.0</ele>
      </trkpt>
      <trkpt lat="46.86846" lon="11.251546">
        <time>1970-01-01T00:00:00+00:00</time>
        <ele>1484.0</ele>
      </trkpt>
      <trkpt lat="46.868422" lon="11.251501">
        <time>1970-01-01T00:00:00+00:00</time>
        <ele>1484.0</ele>
      </trkpt>
      <trkpt lat="46.868323" lon="11.251431">
        <time>1970-01-01T00:00:00+00:00</time>
        <ele>1485.0</ele>
      </trkpt>
      <trkpt lat="46.868163" lon="11.25138">
        <time>1970-01-01T00:00:00+00:00</time>
        <ele>1487.0</ele>
      </trkpt>
      <trkpt lat="46.867963" lon="11.251223">
        <time>1970-01-01T00:00:00+00:00</time>
        <ele>1493.0</ele>
      </trkpt>
      <trkpt lat="46.867898" lon="11.251109">
        <time>1970-01-01T00:00:00+00:00</time>
        <ele>1496.0</ele>
      </trkpt>
      <trkpt lat="46.867856" lon="11.25099">
        <time>1970-01-01T00:00:00+00:00</time>
        <ele>1500.0</ele>
      </trkpt>
      <trkpt lat="46.867837" lon="11.250796">
        <time>1970-01-01T00:00:00+00:00</time>
        <ele>1503.0</ele>
      </trkpt>
      <trkpt lat="46.867851" lon="11.25067">
        <time>1970-01-01T00:00:00+00:00</time>
        <ele>1503.0</ele>
      </trkpt>
      <trkpt lat="46.86806" lon="11.250025">
        <time>1970-01-01T00:00:00+00:00</time>
        <ele>1519.0</ele>
      </trkpt>
      <trkpt lat="46.868142" lon="11.249717">
        <time>1970-01-01T00:00:00+00:00</time>
        <ele>1525.0</ele>
      </trkpt>
      <trkpt lat="46.868289" lon="11.249485">
        <time>1970-01-01T00:00:00+00:00</time>
        <ele>1525.0</ele>
      </trkpt>
      <trkpt lat="46.868356" lon="11.249341">
        <time>1970-01-01T00:00:00+00:00</time>
        <ele>1527.0</ele>
      </trkpt>
      <trkpt lat="46.868484" lon="11.24896">
        <time>1970-01-01T00:00:00+00:00</time>
        <ele>1535.0</ele>
      </trkpt>
      <trkpt lat="46.868537" lon="11.248766">
        <time>1970-01-01T00:00:00+00:00</time>
        <ele>1539.0</ele>
      </trkpt>
      <trkpt lat="46.868602" lon="11.248289">
        <time>1970-01-01T00:00:00+00:00</time>
        <ele>1547.0</ele>
      </trkpt>
      <trkpt lat="46.868655" lon="11.248127">
        <time>1970-01-01T00:00:00+00:00</time>
        <ele>1549.0</ele>
      </trkpt>
      <trkpt lat="46.868707" lon="11.248025">
        <time>1970-01-01T00:00:00+00:00</time>
        <ele>1549.0</ele>
      </trkpt>
      <trkpt lat="46.868768" lon="11.24797">
        <time>1970-01-01T00:00:00+00:00</time>
        <ele>1548.0</ele>
      </trkpt>
      <trkpt lat="46.868852" lon="11.247959">
        <time>1970-01-01T00:00:00+00:00</time>
        <ele>1547.0</ele>
      </trkpt>
      <trkpt lat="46.869181" lon="11.248175">
        <time>1970-01-01T00:00:00+00:00</time>
        <ele>1545.0</ele>
      </trkpt>
      <trkpt lat="46.869324" lon="11.248202">
        <time>1970-01-01T00:00:00+00:00</time>
        <ele>1553.0</ele>
      </trkpt>
      <trkpt lat="46.869556" lon="11.248228">
        <time>1970-01-01T00:00:00+00:00</time>
        <ele>1562.0</ele>
      </trkpt>
      <trkpt lat="46.869714" lon="11.248217">
        <time>1970-01-01T00:00:00+00:00</time>
        <ele>1565.0</ele>
      </trkpt>
      <trkpt lat="46.869868" lon="11.248175">
        <time>1970-01-01T00:00:00+00:00</time>
        <ele>1568.0</ele>
      </trkpt>
      <trkpt lat="46.869994" lon="11.248095">
        <time>1970-01-01T00:00:00+00:00</time>
        <ele>1570.0</ele>
      </trkpt>
      <trkpt lat="46.870028" lon="11.248014">
        <time>1970-01-01T00:00:00+00:00</time>
        <ele>1572.0</ele>
      </trkpt>
      <trkpt lat="46.870027" lon="11.247279">
        <time>1970-01-01T00:00:00+00:00</time>
        <ele>1585.0</ele>
      </trkpt>
      <trkpt lat="46.870043" lon="11.246657">
        <time>1970-01-01T00:00:00+00:00</time>
        <ele>1592.0</ele>
      </trkpt>
      <trkpt lat="46.870233" lon="11.246223">
        <time>1970-01-01T00:00:00+00:00</time>
        <ele>1592.0</ele>
      </trkpt>
      <trkpt lat="46.870287" lon="11.245974">
        <time>1970-01-01T00:00:00+00:00</time>
        <ele>1593.0</ele>
      </trkpt>
      <trkpt lat="46.870297" lon="11.245178">
        <time>1970-01-01T00:00:00+00:00</time>
        <ele>1602.0</ele>
      </trkpt>
      <trkpt lat="46.87032" lon="11.244831">
        <time>1970-01-01T00:00:00+00:00</time>
        <ele>1604.0</ele>
      </trkpt>
      <trkpt lat="46.870358" lon="11.244645">
        <time>1970-01-01T00:00:00+00:00</time>
        <ele>1604.0</ele>
      </trkpt>
      <trkpt lat="46.87053" lon="11.244462">
        <time>1970-01-01T00:00:00+00:00</time>
        <ele>1597.0</ele>
      </trkpt>
      <trkpt lat="46.870636" lon="11.244499">
        <time>1970-01-01T00:00:00+00:00</time>
        <ele>1593.0</ele>
      </trkpt>
      <trkpt lat="46.870746" lon="11.244397">
        <time>1970-01-01T00:00:00+00:00</time>
        <ele>1594.0</ele>
      </trkpt>
      <trkpt lat="46.870724" lon="11.244188">
        <time>1970-01-01T00:00:00+00:00</time>
        <ele>1596.0</ele>
      </trkpt>
      <trkpt lat="46.870768" lon="11.243957">
        <time>1970-01-01T00:00:00+00:00</time>
        <ele>1598.0</ele>
      </trkpt>
      <trkpt lat="46.870816" lon="11.243866">
        <time>1970-01-01T00:00:00+00:00</time>
        <ele>1599.0</ele>
      </trkpt>
      <trkpt lat="46.87082" lon="11.243678">
        <time>1970-01-01T00:00:00+00:00</time>
        <ele>1603.0</ele>
      </trkpt>
      <trkpt lat="46.870735" lon="11.243399">
        <time>1970-01-01T00:00:00+00:00</time>
        <ele>1609.0</ele>
      </trkpt>
      <trkpt lat="46.870787" lon="11.243303">
        <time>1970-01-01T00:00:00+00:00</time>
        <ele>1612.0</ele>
      </trkpt>
      <trkpt lat="46.870879" lon="11.243313">
        <time>1970-01-01T00:00:00+00:00</time>
        <ele>1612.0</ele>
      </trkpt>
      <trkpt lat="46.870979" lon="11.243399">
        <time>1970-01-01T00:00:00+00:00</time>
        <ele>1611.0</ele>
      </trkpt>
      <trkpt lat="46.87102" lon="11.242977">
        <time>1970-01-01T00:00:00+00:00</time>
        <ele>1621.0</ele>
      </trkpt>
      <trkpt lat="46.871015" lon="11.242648">
        <time>1970-01-01T00:00:00+00:00</time>
        <ele>1629.0</ele>
      </trkpt>
      <trkpt lat="46.870974" lon="11.242364">
        <time>1970-01-01T00:00:00+00:00</time>
        <ele>1636.0</ele>
      </trkpt>
      <trkpt lat="46.871087" lon="11.242107">
        <time>1970-01-01T00:00:00+00:00</time>
        <ele>1646.0</ele>
      </trkpt>
      <trkpt lat="46.871355" lon="11.241887">
        <time>1970-01-01T00:00:00+00:00</time>
        <ele>1656.0</ele>
      </trkpt>
      <trkpt lat="46.871575" lon="11.241667">
        <time>1970-01-01T00:00:00+00:00</time>
        <ele>1664.0</ele>
      </trkpt>
      <trkpt lat="46.871634" lon="11.241629">
        <time>1970-01-01T00:00:00+00:00</time>
        <ele>1665.0</ele>
      </trkpt>
      <trkpt lat="46.871861" lon="11.24171">
        <time>1970-01-01T00:00:00+00:00</time>
        <ele>1669.0</ele>
      </trkpt>
      <trkpt lat="46.871923" lon="11.241602">
        <time>1970-01-01T00:00:00+00:00</time>
        <ele>1674.0</ele>
      </trkpt>
      <trkpt lat="46.872099" lon="11.241624">
        <time>1970-01-01T00:00:00+00:00</time>
        <ele>1683.0</ele>
      </trkpt>
      <trkpt lat="46.872198" lon="11.241742">
        <time>1970-01-01T00:00:00+00:00</time>
        <ele>1685.0</ele>
      </trkpt>
      <trkpt lat="46.872312" lon="11.241785">
        <time>1970-01-01T00:00:00+00:00</time>
        <ele>1689.0</ele>
      </trkpt>
      <trkpt lat="46.87247" lon="11.241699">
        <time>1970-01-01T00:00:00+00:00</time>
        <ele>1699.0</ele>
      </trkpt>
      <trkpt lat="46.872811" lon="11.241978">
        <time>1970-01-01T00:00:00+00:00</time>
        <ele>1703.0</ele>
      </trkpt>
      <trkpt lat="46.872837" lon="11.24179">
        <time>1970-01-01T00:00:00+00:00</time>
        <ele>1714.0</ele>
      </trkpt>
      <trkpt lat="46.872932" lon="11.241747">
        <time>1970-01-01T00:00:00+00:00</time>
        <ele>1721.0</ele>
      </trkpt>
      <trkpt lat="46.872859" lon="11.241651">
        <time>1970-01-01T00:00:00+00:00</time>
        <ele>1721.0</ele>
      </trkpt>
      <trkpt lat="46.872939" lon="11.241613">
        <time>1970-01-01T00:00:00+00:00</time>
        <ele>1727.0</ele>
      </trkpt>
      <trkpt lat="46.873093" lon="11.241699">
        <time>1970-01-01T00:00:00+00:00</time>
        <ele>1732.0</ele>
      </trkpt>
      <trkpt lat="46.87306" lon="11.241812">
        <time>1970-01-01T00:00:00+00:00</time>
        <ele>1724.0</ele>
      </trkpt>
      <trkpt lat="46.873126" lon="11.241795">
        <time>1970-01-01T00:00:00+00:00</time>
        <ele>1729.0</ele>
      </trkpt>
      <trkpt lat="46.873218" lon="11.241908">
        <time>1970-01-01T00:00:00+00:00</time>
        <ele>1727.0</ele>
      </trkpt>
      <trkpt lat="46.873343" lon="11.241849">
        <time>1970-01-01T00:00:00+00:00</time>
        <ele>1738.0</ele>
      </trkpt>
      <trkpt lat="46.873295" lon="11.241629">
        <time>1970-01-01T00:00:00+00:00</time>
        <ele>1745.0</ele>
      </trkpt>
      <trkpt lat="46.873247" lon="11.241538">
        <time>1970-01-01T00:00:00+00:00</time>
        <ele>1746.0</ele>
      </trkpt>
      <trkpt lat="46.873207" lon="11.241581">
        <time>1970-01-01T00:00:00+00:00</time>
        <ele>1742.0</ele>
      </trkpt>
      <trkpt lat="46.873148" lon="11.241366">
        <time>1970-01-01T00:00:00+00:00</time>
        <ele>1749.0</ele>
      </trkpt>
      <trkpt lat="46.873277" lon="11.241415">
        <time>1970-01-01T00:00:00+00:00</time>
        <ele>1753.0</ele>
      </trkpt>
      <trkpt lat="46.87339" lon="11.241323">
        <time>1970-01-01T00:00:00+00:00</time>
        <ele>1763.0</ele>
      </trkpt>
      <trkpt lat="46.873471" lon="11.24135">
        <time>1970-01-01T00:00:00+00:00</time>
        <ele>1766.0</ele>
      </trkpt>
      <trkpt lat="46.873519" lon="11.241302">
        <time>1970-01-01T00:00:00+00:00</time>
        <ele>1770.0</ele>
      </trkpt>
      <trkpt lat="46.873357" lon="11.241152">
        <time>1970-01-01T00:00:00+00:00</time>
        <ele>1772.0</ele>
      </trkpt>
      <trkpt lat="46.873471" lon="11.241157">
        <time>1970-01-01T00:00:00+00:00</time>
        <ele>1775.0</ele>
      </trkpt>
      <trkpt lat="46.873559" lon="11.240942">
        <time>1970-01-01T00:00:00+00:00</time>
        <ele>1787.0</ele>
      </trkpt>
      <trkpt lat="46.873533" lon="11.240889">
        <time>1970-01-01T00:00:00+00:00</time>
        <ele>1789.0</ele>
      </trkpt>
      <trkpt lat="46.873566" lon="11.240749">
        <time>1970-01-01T00:00:00+00:00</time>
        <ele>1794.0</ele>
      </trkpt>
      <trkpt lat="46.873478" lon="11.240757">
        <time>1970-01-01T00:00:00+00:00</time>
        <ele>1794.0</ele>
      </trkpt>
      <trkpt lat="46.873436" lon="11.240816">
        <time>1970-01-01T00:00:00+00:00</time>
        <ele>1792.0</ele>
      </trkpt>
      <trkpt lat="46.873359" lon="11.240776">
        <time>1970-01-01T00:00:00+00:00</time>
        <ele>1794.0</ele>
      </trkpt>
      <trkpt lat="46.873337" lon="11.24058">
        <time>1970-01-01T00:00:00+00:00</time>
        <ele>1803.0</ele>
      </trkpt>
      <trkpt lat="46.873374" lon="11.240529">
        <time>1970-01-01T00:00:00+00:00</time>
        <ele>1806.0</ele>
      </trkpt>
      <trkpt lat="46.873398" lon="11.240411">
        <time>1970-01-01T00:00:00+00:00</time>
        <ele>1811.0</ele>
      </trkpt>
      <trkpt lat="46.873315" lon="11.240334">
        <time>1970-01-01T00:00:00+00:00</time>
        <ele>1814.0</ele>
      </trkpt>
      <trkpt lat="46.873273" lon="11.240242">
        <time>1970-01-01T00:00:00+00:00</time>
        <ele>1818.0</ele>
      </trkpt>
      <trkpt lat="46.873255" lon="11.240149">
        <time>1970-01-01T00:00:00+00:00</time>
        <ele>1822.0</ele>
      </trkpt>
      <trkpt lat="46.873064" lon="11.240063">
        <time>1970-01-01T00:00:00+00:00</time>
        <ele>1822.0</ele>
      </trkpt>
      <trkpt lat="46.873108" lon="11.240014">
        <time>1970-01-01T00:00:00+00:00</time>
        <ele>1824.0</ele>
      </trkpt>
      <trkpt lat="46.873112" lon="11.23991">
        <time>1970-01-01T00:00:00+00:00</time>
        <ele>1828.0</ele>
      </trkpt>
      <trkpt lat="46.873187" lon="11.239891">
        <time>1970-01-01T00:00:00+00:00</time>
        <ele>1829.0</ele>
      </trkpt>
      <trkpt lat="46.873218" lon="11.239781">
        <time>1970-01-01T00:00:00+00:00</time>
        <ele>1832.0</ele>
      </trkpt>
      <trkpt lat="46.873198" lon="11.239636">
        <time>1970-01-01T00:00:00+00:00</time>
        <ele>1836.0</ele>
      </trkpt>
      <trkpt lat="46.873218" lon="11.23943">
        <time>1970-01-01T00:00:00+00:00</time>
        <ele>1841.0</ele>
      </trkpt>
      <trkpt lat="46.873198" lon="11.23936">
        <time>1970-01-01T00:00:00+00:00</time>
        <ele>1843.0</ele>
      </trkpt>
      <trkpt lat="46.873223" lon="11.239159">
        <time>1970-01-01T00:00:00+00:00</time>
        <ele>1848.0</ele>
      </trkpt>
      <trkpt lat="46.873218" lon="11.239046">
        <time>1970-01-01T00:00:00+00:00</time>
        <ele>1852.0</ele>
      </trkpt>
      <trkpt lat="46.873238" lon="11.238947">
        <time>1970-01-01T00:00:00+00:00</time>
        <ele>1855.0</ele>
      </trkpt>
      <trkpt lat="46.873278" lon="11.238861">
        <time>1970-01-01T00:00:00+00:00</time>
        <ele>1858.0</ele>
      </trkpt>
      <trkpt lat="46.873306" lon="11.238754">
        <time>1970-01-01T00:00:00+00:00</time>
        <ele>1861.0</ele>
      </trkpt>
      <trkpt lat="46.873422" lon="11.238606">
        <time>1970-01-01T00:00:00+00:00</time>
        <ele>1863.0</ele>
      </trkpt>
      <trkpt lat="46.873609" lon="11.238274">
        <time>1970-01-01T00:00:00+00:00</time>
        <ele>1864.0</ele>
      </trkpt>
      <trkpt lat="46.873647" lon="11.238239">
        <time>1970-01-01T00:00:00+00:00</time>
        <ele>1863.0</ele>
      </trkpt>
      <trkpt lat="46.873647" lon="11.238239">
        <time>1970-01-01T00:00:00+00:00</time>
        <ele>1863.0</ele>
      </trkpt>
      <trkpt lat="46.873609" lon="11.238274">
        <time>1970-01-01T00:00:00+00:00</time>
        <ele>1864.0</ele>
      </trkpt>
      <trkpt lat="46.873422" lon="11.238606">
        <time>1970-01-01T00:00:00+00:00</time>
        <ele>1863.0</ele>
      </trkpt>
      <trkpt lat="46.873306" lon="11.238754">
        <time>1970-01-01T00:00:00+00:00</time>
        <ele>1861.0</ele>
      </trkpt>
      <trkpt lat="46.873278" lon="11.238861">
        <time>1970-01-01T00:00:00+00:00</time>
        <ele>1858.0</ele>
      </trkpt>
      <trkpt lat="46.873238" lon="11.238947">
        <time>1970-01-01T00:00:00+00:00</time>
        <ele>1855.0</ele>
      </trkpt>
      <trkpt lat="46.873218" lon="11.239046">
        <time>1970-01-01T00:00:00+00:00</time>
        <ele>1852.0</ele>
      </trkpt>
      <trkpt lat="46.873223" lon="11.239159">
        <time>1970-01-01T00:00:00+00:00</time>
        <ele>1848.0</ele>
      </trkpt>
      <trkpt lat="46.873198" lon="11.23936">
        <time>1970-01-01T00:00:00+00:00</time>
        <ele>1843.0</ele>
      </trkpt>
      <trkpt lat="46.873218" lon="11.23943">
        <time>1970-01-01T00:00:00+00:00</time>
        <ele>1841.0</ele>
      </trkpt>
      <trkpt lat="46.873198" lon="11.239636">
        <time>1970-01-01T00:00:00+00:00</time>
        <ele>1836.0</ele>
      </trkpt>
      <trkpt lat="46.873218" lon="11.239781">
        <time>1970-01-01T00:00:00+00:00</time>
        <ele>1832.0</ele>
      </trkpt>
      <trkpt lat="46.873187" lon="11.239891">
        <time>1970-01-01T00:00:00+00:00</time>
        <ele>1829.0</ele>
      </trkpt>
      <trkpt lat="46.873112" lon="11.23991">
        <time>1970-01-01T00:00:00+00:00</time>
        <ele>1828.0</ele>
      </trkpt>
      <trkpt lat="46.873108" lon="11.240014">
        <time>1970-01-01T00:00:00+00:00</time>
        <ele>1824.0</ele>
      </trkpt>
      <trkpt lat="46.873064" lon="11.240063">
        <time>1970-01-01T00:00:00+00:00</time>
        <ele>1822.0</ele>
      </trkpt>
      <trkpt lat="46.873255" lon="11.240149">
        <time>1970-01-01T00:00:00+00:00</time>
        <ele>1822.0</ele>
      </trkpt>
      <trkpt lat="46.873273" lon="11.240242">
        <time>1970-01-01T00:00:00+00:00</time>
        <ele>1818.0</ele>
      </trkpt>
      <trkpt lat="46.873315" lon="11.240334">
        <time>1970-01-01T00:00:00+00:00</time>
        <ele>1814.0</ele>
      </trkpt>
      <trkpt lat="46.873398" lon="11.240411">
        <time>1970-01-01T00:00:00+00:00</time>
        <ele>1811.0</ele>
      </trkpt>
      <trkpt lat="46.873374" lon="11.240529">
        <time>1970-01-01T00:00:00+00:00</time>
        <ele>1806.0</ele>
      </trkpt>
      <trkpt lat="46.873337" lon="11.24058">
        <time>1970-01-01T00:00:00+00:00</time>
        <ele>1803.0</ele>
      </trkpt>
      <trkpt lat="46.873359" lon="11.240776">
        <time>1970-01-01T00:00:00+00:00</time>
        <ele>1794.0</ele>
      </trkpt>
      <trkpt lat="46.873436" lon="11.240816">
        <time>1970-01-01T00:00:00+00:00</time>
        <ele>1792.0</ele>
      </trkpt>
      <trkpt lat="46.873478" lon="11.240757">
        <time>1970-01-01T00:00:00+00:00</time>
        <ele>1794.0</ele>
      </trkpt>
      <trkpt lat="46.873566" lon="11.240749">
        <time>1970-01-01T00:00:00+00:00</time>
        <ele>1794.0</ele>
      </trkpt>
      <trkpt lat="46.873533" lon="11.240889">
        <time>1970-01-01T00:00:00+00:00</time>
        <ele>1789.0</ele>
      </trkpt>
      <trkpt lat="46.873559" lon="11.240942">
        <time>1970-01-01T00:00:00+00:00</time>
        <ele>1787.0</ele>
      </trkpt>
      <trkpt lat="46.873471" lon="11.241157">
        <time>1970-01-01T00:00:00+00:00</time>
        <ele>1775.0</ele>
      </trkpt>
      <trkpt lat="46.873357" lon="11.241152">
        <time>1970-01-01T00:00:00+00:00</time>
        <ele>1772.0</ele>
      </trkpt>
      <trkpt lat="46.873519" lon="11.241302">
        <time>1970-01-01T00:00:00+00:00</time>
        <ele>1770.0</ele>
      </trkpt>
      <trkpt lat="46.873471" lon="11.24135">
        <time>1970-01-01T00:00:00+00:00</time>
        <ele>1766.0</ele>
      </trkpt>
      <trkpt lat="46.87339" lon="11.241323">
        <time>1970-01-01T00:00:00+00:00</time>
        <ele>1763.0</ele>
      </trkpt>
      <trkpt lat="46.873277" lon="11.241415">
        <time>1970-01-01T00:00:00+00:00</time>
        <ele>1753.0</ele>
      </trkpt>
      <trkpt lat="46.873148" lon="11.241366">
        <time>1970-01-01T00:00:00+00:00</time>
        <ele>1749.0</ele>
      </trkpt>
      <trkpt lat="46.873207" lon="11.241581">
        <time>1970-01-01T00:00:00+00:00</time>
        <ele>1742.0</ele>
      </trkpt>
      <trkpt lat="46.873247" lon="11.241538">
        <time>1970-01-01T00:00:00+00:00</time>
        <ele>1746.0</ele>
      </trkpt>
      <trkpt lat="46.873295" lon="11.241629">
        <time>1970-01-01T00:00:00+00:00</time>
        <ele>1745.0</ele>
      </trkpt>
      <trkpt lat="46.873343" lon="11.241849">
        <time>1970-01-01T00:00:00+00:00</time>
        <ele>1738.0</ele>
      </trkpt>
      <trkpt lat="46.873218" lon="11.241908">
        <time>1970-01-01T00:00:00+00:00</time>
        <ele>1727.0</ele>
      </trkpt>
      <trkpt lat="46.873126" lon="11.241795">
        <time>1970-01-01T00:00:00+00:00</time>
        <ele>1729.0</ele>
      </trkpt>
      <trkpt lat="46.87306" lon="11.241812">
        <time>1970-01-01T00:00:00+00:00</time>
        <ele>1724.0</ele>
      </trkpt>
      <trkpt lat="46.873093" lon="11.241699">
        <time>1970-01-01T00:00:00+00:00</time>
        <ele>1732.0</ele>
      </trkpt>
      <trkpt lat="46.872939" lon="11.241613">
        <time>1970-01-01T00:00:00+00:00</time>
        <ele>1727.0</ele>
      </trkpt>
      <trkpt lat="46.872859" lon="11.241651">
        <time>1970-01-01T00:00:00+00:00</time>
        <ele>1721.0</ele>
      </trkpt>
      <trkpt lat="46.872932" lon="11.241747">
        <time>1970-01-01T00:00:00+00:00</time>
        <ele>1721.0</ele>
      </trkpt>
      <trkpt lat="46.872837" lon="11.24179">
        <time>1970-01-01T00:00:00+00:00</time>
        <ele>1714.0</ele>
      </trkpt>
      <trkpt lat="46.872811" lon="11.241978">
        <time>1970-01-01T00:00:00+00:00</time>
        <ele>1703.0</ele>
      </trkpt>
      <trkpt lat="46.87247" lon="11.241699">
        <time>1970-01-01T00:00:00+00:00</time>
        <ele>1699.0</ele>
      </trkpt>
      <trkpt lat="46.872312" lon="11.241785">
        <time>1970-01-01T00:00:00+00:00</time>
        <ele>1689.0</ele>
      </trkpt>
      <trkpt lat="46.872198" lon="11.241742">
        <time>1970-01-01T00:00:00+00:00</time>
        <ele>1685.0</ele>
      </trkpt>
      <trkpt lat="46.872099" lon="11.241624">
        <time>1970-01-01T00:00:00+00:00</time>
        <ele>1683.0</ele>
      </trkpt>
      <trkpt lat="46.871923" lon="11.241602">
        <time>1970-01-01T00:00:00+00:00</time>
        <ele>1674.0</ele>
      </trkpt>
      <trkpt lat="46.871861" lon="11.24171">
        <time>1970-01-01T00:00:00+00:00</time>
        <ele>1669.0</ele>
      </trkpt>
      <trkpt lat="46.871634" lon="11.241629">
        <time>1970-01-01T00:00:00+00:00</time>
        <ele>1665.0</ele>
      </trkpt>
      <trkpt lat="46.871575" lon="11.241667">
        <time>1970-01-01T00:00:00+00:00</time>
        <ele>1664.0</ele>
      </trkpt>
      <trkpt lat="46.871355" lon="11.241887">
        <time>1970-01-01T00:00:00+00:00</time>
        <ele>1656.0</ele>
      </trkpt>
      <trkpt lat="46.871087" lon="11.242107">
        <time>1970-01-01T00:00:00+00:00</time>
        <ele>1646.0</ele>
      </trkpt>
      <trkpt lat="46.870974" lon="11.242364">
        <time>1970-01-01T00:00:00+00:00</time>
        <ele>1636.0</ele>
      </trkpt>
      <trkpt lat="46.871015" lon="11.242648">
        <time>1970-01-01T00:00:00+00:00</time>
        <ele>1629.0</ele>
      </trkpt>
      <trkpt lat="46.87102" lon="11.242977">
        <time>1970-01-01T00:00:00+00:00</time>
        <ele>1621.0</ele>
      </trkpt>
      <trkpt lat="46.870979" lon="11.243399">
        <time>1970-01-01T00:00:00+00:00</time>
        <ele>1611.0</ele>
      </trkpt>
      <trkpt lat="46.870879" lon="11.243313">
        <time>1970-01-01T00:00:00+00:00</time>
        <ele>1612.0</ele>
      </trkpt>
      <trkpt lat="46.870787" lon="11.243303">
        <time>1970-01-01T00:00:00+00:00</time>
        <ele>1612.0</ele>
      </trkpt>
      <trkpt lat="46.870735" lon="11.243399">
        <time>1970-01-01T00:00:00+00:00</time>
        <ele>1609.0</ele>
      </trkpt>
      <trkpt lat="46.87082" lon="11.243678">
        <time>1970-01-01T00:00:00+00:00</time>
        <ele>1603.0</ele>
      </trkpt>
      <trkpt lat="46.870816" lon="11.243866">
        <time>1970-01-01T00:00:00+00:00</time>
        <ele>1599.0</ele>
      </trkpt>
      <trkpt lat="46.870768" lon="11.243957">
        <time>1970-01-01T00:00:00+00:00</time>
        <ele>1598.0</ele>
      </trkpt>
      <trkpt lat="46.870724" lon="11.244188">
        <time>1970-01-01T00:00:00+00:00</time>
        <ele>1596.0</ele>
      </trkpt>
      <trkpt lat="46.870746" lon="11.244397">
        <time>1970-01-01T00:00:00+00:00</time>
        <ele>1594.0</ele>
      </trkpt>
      <trkpt lat="46.870636" lon="11.244499">
        <time>1970-01-01T00:00:00+00:00</time>
        <ele>1593.0</ele>
      </trkpt>
      <trkpt lat="46.87053" lon="11.244462">
        <time>1970-01-01T00:00:00+00:00</time>
        <ele>1597.0</ele>
      </trkpt>
      <trkpt lat="46.870358" lon="11.244645">
        <time>1970-01-01T00:00:00+00:00</time>
        <ele>1604.0</ele>
      </trkpt>
      <trkpt lat="46.87032" lon="11.244831">
        <time>1970-01-01T00:00:00+00:00</time>
        <ele>1604.0</ele>
      </trkpt>
      <trkpt lat="46.870297" lon="11.245178">
        <time>1970-01-01T00:00:00+00:00</time>
        <ele>1602.0</ele>
      </trkpt>
      <trkpt lat="46.870287" lon="11.245974">
        <time>1970-01-01T00:00:00+00:00</time>
        <ele>1593.0</ele>
      </trkpt>
      <trkpt lat="46.870233" lon="11.246223">
        <time>1970-01-01T00:00:00+00:00</time>
        <ele>1592.0</ele>
      </trkpt>
      <trkpt lat="46.870043" lon="11.246657">
        <time>1970-01-01T00:00:00+00:00</time>
        <ele>1592.0</ele>
      </trkpt>
      <trkpt lat="46.870027" lon="11.247279">
        <time>1970-01-01T00:00:00+00:00</time>
        <ele>1585.0</ele>
      </trkpt>
      <trkpt lat="46.870028" lon="11.248014">
        <time>1970-01-01T00:00:00+00:00</time>
        <ele>1572.0</ele>
      </trkpt>
      <trkpt lat="46.869994" lon="11.248095">
        <time>1970-01-01T00:00:00+00:00</time>
        <ele>1570.0</ele>
      </trkpt>
      <trkpt lat="46.869868" lon="11.248175">
        <time>1970-01-01T00:00:00+00:00</time>
        <ele>1568.0</ele>
      </trkpt>
      <trkpt lat="46.869714" lon="11.248217">
        <time>1970-01-01T00:00:00+00:00</time>
        <ele>1565.0</ele>
      </trkpt>
      <trkpt lat="46.869556" lon="11.248228">
        <time>1970-01-01T00:00:00+00:00</time>
        <ele>1562.0</ele>
      </trkpt>
      <trkpt lat="46.869324" lon="11.248202">
        <time>1970-01-01T00:00:00+00:00</time>
        <ele>1553.0</ele>
      </trkpt>
      <trkpt lat="46.869181" lon="11.248175">
        <time>1970-01-01T00:00:00+00:00</time>
        <ele>1545.0</ele>
      </trkpt>
      <trkpt lat="46.868852" lon="11.247959">
        <time>1970-01-01T00:00:00+00:00</time>
        <ele>1547.0</ele>
      </trkpt>
      <trkpt lat="46.868768" lon="11.24797">
        <time>1970-01-01T00:00:00+00:00</time>
        <ele>1548.0</ele>
      </trkpt>
      <trkpt lat="46.868707" lon="11.248025">
        <time>1970-01-01T00:00:00+00:00</time>
        <ele>1549.0</ele>
      </trkpt>
      <trkpt lat="46.868655" lon="11.248127">
        <time>1970-01-01T00:00:00+00:00</time>
        <ele>1549.0</ele>
      </trkpt>
      <trkpt lat="46.868602" lon="11.248289">
        <time>1970-01-01T00:00:00+00:00</time>
        <ele>1547.0</ele>
      </trkpt>
      <trkpt lat="46.868537" lon="11.248766">
        <time>1970-01-01T00:00:00+00:00</time>
        <ele>1539.0</ele>
      </trkpt>
      <trkpt lat="46.868484" lon="11.24896">
        <time>1970-01-01T00:00:00+00:00</time>
        <ele>1535.0</ele>
      </trkpt>
      <trkpt lat="46.868356" lon="11.249341">
        <time>1970-01-01T00:00:00+00:00</time>
        <ele>1527.0</ele>
      </trkpt>
      <trkpt lat="46.868289" lon="11.249485">
        <time>1970-01-01T00:00:00+00:00</time>
        <ele>1525.0</ele>
      </trkpt>
      <trkpt lat="46.868142" lon="11.249717">
        <time>1970-01-01T00:00:00+00:00</time>
        <ele>1525.0</ele>
      </trkpt>
      <trkpt lat="46.86806" lon="11.250025">
        <time>1970-01-01T00:00:00+00:00</time>
        <ele>1519.0</ele>
      </trkpt>
      <trkpt lat="46.867851" lon="11.25067">
        <time>1970-01-01T00:00:00+00:00</time>
        <ele>1503.0</ele>
      </trkpt>
      <trkpt lat="46.867837" lon="11.250796">
        <time>1970-01-01T00:00:00+00:00</time>
        <ele>1503.0</ele>
      </trkpt>
      <trkpt lat="46.867856" lon="11.25099">
        <time>1970-01-01T00:00:00+00:00</time>
        <ele>1500.0</ele>
      </trkpt>
      <trkpt lat="46.867898" lon="11.251109">
        <time>1970-01-01T00:00:00+00:00</time>
        <ele>1496.0</ele>
      </trkpt>
      <trkpt lat="46.867963" lon="11.251223">
        <time>1970-01-01T00:00:00+00:00</time>
        <ele>1493.0</ele>
      </trkpt>
      <trkpt lat="46.868163" lon="11.25138">
        <time>1970-01-01T00:00:00+00:00</time>
        <ele>1487.0</ele>
      </trkpt>
      <trkpt lat="46.868323" lon="11.251431">
        <time>1970-01-01T00:00:00+00:00</time>
        <ele>1485.0</ele>
      </trkpt>
      <trkpt lat="46.868422" lon="11.251501">
        <time>1970-01-01T00:00:00+00:00</time>
        <ele>1484.0</ele>
      </trkpt>
      <trkpt lat="46.86846" lon="11.251546">
        <time>1970-01-01T00:00:00+00:00</time>
        <ele>1484.0</ele>
      </trkpt>
      <trkpt lat="46.86848" lon="11.251651">
        <time>1970-01-01T00:00:00+00:00</time>
        <ele>1484.0</ele>
      </trkpt>
      <trkpt lat="46.868432" lon="11.251856">
        <time>1970-01-01T00:00:00+00:00</time>
        <ele>1482.0</ele>
      </trkpt>
      <trkpt lat="46.868407" lon="11.251922">
        <time>1970-01-01T00:00:00+00:00</time>
        <ele>1482.0</ele>
      </trkpt>
    </trkseg>
  </trk>
</gpx>
